{"data":{"norad_id":40020,"epoch":"2026-05-24T22:28:33.129984Z","epoch_age_seconds":83744,"freshness":"FRESH","line1":"1 40020U 14033L   26144.93649456  .00000521  00000+0  86157-4 0  9998","line2":"2 40020  97.9708 274.2977 0078372 352.3792   7.6219 14.72639741638796","mean_motion":14.72639741,"eccentricity":0.0078372,"inclination_deg":97.9708,"raan_deg":274.2977,"arg_perigee_deg":352.3792,"mean_anomaly_deg":7.6219,"bstar":8.6157e-5,"rev_number":63879,"period_min":97.783589557495,"perigee_km":597.55189424948,"apogee_km":707.75531853027,"semimajor_km":7030.7906063899,"source":"CELESTRAK","updated_at":"2026-05-25T13:38:25.495243Z"}}